Year,Month,Day,Hour,Minute,Value (Times are PST for temperature in C)
2014,08,09,00,00,15.00
2014,08,09,00,01,15.00
2014,08,09,00,02,15.00
2014,08,09,00,03,15.00
2014,08,09,00,04,15.00
2014,08,09,00,05,15.00
2014,08,09,00,06,15.00
2014,08,09,00,07,15.00
2014,08,09,00,08,15.00
2014,08,09,00,09,15.00
2014,08,09,00,10,14.90
2014,08,09,00,11,14.90
2014,08,09,00,12,14.90
2014,08,09,00,13,14.90
2014,08,09,00,14,14.80
2014,08,09,00,15,14.80
2014,08,09,00,16,14.80
2014,08,09,00,17,14.80
2014,08,09,00,18,14.80
2014,08,09,00,19,14.80
2014,08,09,00,20,14.80
2014,08,09,00,21,14.80
2014,08,09,00,22,14.80
2014,08,09,00,23,14.80
2014,08,09,00,24,14.80
2014,08,09,00,25,14.80
2014,08,09,00,26,14.80
2014,08,09,00,27,14.80
2014,08,09,00,28,14.80
2014,08,09,00,29,14.80
2014,08,09,00,30,14.80
2014,08,09,00,31,14.80
2014,08,09,00,32,14.80
2014,08,09,00,33,14.80
2014,08,09,00,34,14.70
2014,08,09,00,35,14.70
2014,08,09,00,36,14.70
2014,08,09,00,37,14.70
2014,08,09,00,38,14.60
2014,08,09,00,39,14.60
2014,08,09,00,40,14.60
2014,08,09,00,41,14.60
2014,08,09,00,42,14.50
2014,08,09,00,43,14.50
2014,08,09,00,44,14.50
2014,08,09,00,45,14.50
2014,08,09,00,46,14.50
2014,08,09,00,47,14.40
2014,08,09,00,48,14.40
2014,08,09,00,49,14.40
2014,08,09,00,50,14.40
2014,08,09,00,51,14.40
2014,08,09,00,52,14.40
2014,08,09,00,53,14.30
2014,08,09,00,54,14.30
2014,08,09,00,55,14.30
2014,08,09,00,56,14.30
2014,08,09,00,57,14.30
2014,08,09,00,58,14.30
2014,08,09,00,59,14.30
2014,08,09,01,00,14.20
2014,08,09,01,01,14.20
2014,08,09,01,02,14.20
2014,08,09,01,03,14.20
2014,08,09,01,04,14.30
2014,08,09,01,05,14.30
2014,08,09,01,06,14.40
2014,08,09,01,07,14.40
2014,08,09,01,08,14.60
2014,08,09,01,09,14.70
2014,08,09,01,10,14.90
2014,08,09,01,11,15.00
2014,08,09,01,12,15.00
2014,08,09,01,13,15.20
2014,08,09,01,14,15.30
2014,08,09,01,15,15.40
2014,08,09,01,16,15.60
2014,08,09,01,17,15.70
2014,08,09,01,18,15.80
2014,08,09,01,19,15.90
2014,08,09,01,20,16.00
2014,08,09,01,21,16.00
2014,08,09,01,22,16.10
2014,08,09,01,23,16.20
2014,08,09,01,24,16.30
2014,08,09,01,25,16.30
2014,08,09,01,26,16.40
2014,08,09,01,27,16.40
2014,08,09,01,28,16.40
2014,08,09,01,29,16.40
2014,08,09,01,30,16.40
2014,08,09,01,31,16.50
2014,08,09,01,32,16.50
2014,08,09,01,33,16.60
2014,08,09,01,34,16.60
2014,08,09,01,35,16.60
2014,08,09,01,36,16.70
2014,08,09,01,37,16.70
2014,08,09,01,38,16.70
2014,08,09,01,39,16.80
2014,08,09,01,40,16.80
2014,08,09,01,41,16.80
2014,08,09,01,42,16.80
2014,08,09,01,43,16.80
2014,08,09,01,44,16.80
2014,08,09,01,45,16.80
2014,08,09,01,46,16.80
2014,08,09,01,47,16.80
2014,08,09,01,48,16.80
2014,08,09,01,49,16.80
2014,08,09,01,50,16.80
2014,08,09,01,51,16.80
2014,08,09,01,52,16.80
2014,08,09,01,53,16.80
2014,08,09,01,54,16.80
2014,08,09,01,55,16.80
2014,08,09,01,56,16.80
2014,08,09,01,57,16.80
2014,08,09,01,58,16.80
2014,08,09,01,59,16.80
2014,08,09,02,00,16.80
2014,08,09,02,01,16.80
2014,08,09,02,02,16.80
2014,08,09,02,03,16.80
2014,08,09,02,04,16.80
2014,08,09,02,05,16.80
2014,08,09,02,06,16.80
2014,08,09,02,07,16.70
2014,08,09,02,08,16.70
2014,08,09,02,09,16.70
2014,08,09,02,10,16.60
2014,08,09,02,11,16.60
2014,08,09,02,12,16.50
2014,08,09,02,13,16.50
2014,08,09,02,14,16.40
2014,08,09,02,15,16.40
2014,08,09,02,16,16.30
2014,08,09,02,17,16.30
2014,08,09,02,18,16.30
2014,08,09,02,19,16.20
2014,08,09,02,20,16.20
2014,08,09,02,21,16.10
2014,08,09,02,22,16.10
2014,08,09,02,23,16.10
2014,08,09,02,24,16.00
2014,08,09,02,25,16.00
2014,08,09,02,26,15.90
2014,08,09,02,27,15.90
2014,08,09,02,28,15.90
2014,08,09,02,29,15.80
2014,08,09,02,30,15.80
2014,08,09,02,31,15.70
2014,08,09,02,32,15.70
2014,08,09,02,33,15.70
2014,08,09,02,34,15.60
2014,08,09,02,35,15.60
2014,08,09,02,36,15.60
2014,08,09,02,37,15.60
2014,08,09,02,38,15.60
2014,08,09,02,39,15.60
2014,08,09,02,40,15.70
2014,08,09,02,41,15.70
2014,08,09,02,42,15.70
2014,08,09,02,43,15.80
2014,08,09,02,44,15.80
2014,08,09,02,45,15.80
2014,08,09,02,46,15.90
2014,08,09,02,47,15.90
2014,08,09,02,48,16.00
2014,08,09,02,49,16.00
2014,08,09,02,50,16.10
2014,08,09,02,51,16.20
2014,08,09,02,52,16.20
2014,08,09,02,53,16.30
2014,08,09,02,54,16.30
2014,08,09,02,55,16.40
2014,08,09,02,56,16.40
2014,08,09,02,57,16.40
2014,08,09,02,58,16.40
2014,08,09,02,59,16.50
2014,08,09,03,00,16.50
2014,08,09,03,01,16.50
2014,08,09,03,02,16.50
2014,08,09,03,03,16.60
2014,08,09,03,04,16.60
2014,08,09,03,05,16.60
2014,08,09,03,06,16.60
2014,08,09,03,07,16.60
2014,08,09,03,08,16.60
2014,08,09,03,09,16.50
2014,08,09,03,10,16.50
2014,08,09,03,11,16.50
2014,08,09,03,12,16.40
2014,08,09,03,13,16.40
2014,08,09,03,14,16.40
2014,08,09,03,15,16.40
2014,08,09,03,16,16.40
2014,08,09,03,17,16.40
2014,08,09,03,18,16.40
2014,08,09,03,19,16.30
2014,08,09,03,20,16.30
2014,08,09,03,21,16.20
2014,08,09,03,22,16.20
2014,08,09,03,23,16.20
2014,08,09,03,24,16.20
2014,08,09,03,25,16.20
2014,08,09,03,26,16.10
2014,08,09,03,27,16.10
2014,08,09,03,28,16.10
2014,08,09,03,29,16.10
2014,08,09,03,30,16.10
2014,08,09,03,31,16.00
2014,08,09,03,32,16.00
2014,08,09,03,33,16.00
2014,08,09,03,34,16.00
2014,08,09,03,35,16.00
2014,08,09,03,36,16.00
2014,08,09,03,37,16.00
2014,08,09,03,38,16.00
2014,08,09,03,39,16.00
2014,08,09,03,40,16.00
2014,08,09,03,41,16.00
2014,08,09,03,42,16.00
2014,08,09,03,43,16.00
2014,08,09,03,44,15.90
2014,08,09,03,45,15.90
2014,08,09,03,46,15.80
2014,08,09,03,47,15.80
2014,08,09,03,48,15.70
2014,08,09,03,49,15.60
2014,08,09,03,50,15.50
2014,08,09,03,51,15.50
2014,08,09,03,52,15.40
2014,08,09,03,53,15.30
2014,08,09,03,54,15.30
2014,08,09,03,55,15.20
2014,08,09,03,56,15.10
2014,08,09,03,57,15.00
2014,08,09,03,58,15.00
2014,08,09,03,59,15.00
2014,08,09,04,00,15.00
2014,08,09,04,01,15.00
2014,08,09,04,02,15.00
2014,08,09,04,03,14.90
2014,08,09,04,04,14.90
2014,08,09,04,05,14.80
2014,08,09,04,06,14.80
2014,08,09,04,07,14.80
2014,08,09,04,08,14.70
2014,08,09,04,09,14.70
2014,08,09,04,10,14.70
2014,08,09,04,11,14.70
2014,08,09,04,12,14.60
2014,08,09,04,13,14.60
2014,08,09,04,14,14.60
2014,08,09,04,15,14.60
2014,08,09,04,16,14.50
2014,08,09,04,17,14.50
2014,08,09,04,18,14.40
2014,08,09,04,19,14.40
2014,08,09,04,20,14.40
2014,08,09,04,21,14.40
2014,08,09,04,22,14.40
2014,08,09,04,23,14.30
2014,08,09,04,24,14.30
2014,08,09,04,25,14.30
2014,08,09,04,26,14.30
2014,08,09,04,27,14.30
2014,08,09,04,28,14.20
2014,08,09,04,29,14.20
2014,08,09,04,30,14.20
2014,08,09,04,31,14.20
2014,08,09,04,32,14.20
2014,08,09,04,33,14.10
2014,08,09,04,34,14.10
2014,08,09,04,35,14.10
2014,08,09,04,36,14.10
2014,08,09,04,37,14.10
2014,08,09,04,38,14.00
2014,08,09,04,39,14.00
2014,08,09,04,40,14.00
2014,08,09,04,41,14.00
2014,08,09,04,42,13.90
2014,08,09,04,43,13.90
2014,08,09,04,44,13.90
2014,08,09,04,45,13.90
2014,08,09,04,46,13.90
2014,08,09,04,47,13.90
2014,08,09,04,48,13.90
2014,08,09,04,49,13.90
2014,08,09,04,50,13.80
2014,08,09,04,51,13.80
2014,08,09,04,52,13.80
2014,08,09,04,53,13.80
2014,08,09,04,54,13.80
2014,08,09,04,55,13.80
2014,08,09,04,56,13.80
2014,08,09,04,57,13.80
2014,08,09,04,58,13.80
2014,08,09,04,59,13.80
2014,08,09,05,00,13.80
2014,08,09,05,01,13.80
2014,08,09,05,02,13.90
2014,08,09,05,03,13.90
2014,08,09,05,04,14.00
2014,08,09,05,05,14.00
2014,08,09,05,06,14.10
2014,08,09,05,07,14.20
2014,08,09,05,08,14.20
2014,08,09,05,09,14.30
2014,08,09,05,10,14.30
2014,08,09,05,11,14.40
2014,08,09,05,12,14.50
2014,08,09,05,13,14.50
2014,08,09,05,14,14.60
2014,08,09,05,15,14.60
2014,08,09,05,16,14.70
2014,08,09,05,17,14.70
2014,08,09,05,18,14.70
2014,08,09,05,19,14.70
2014,08,09,05,20,14.70
2014,08,09,05,21,14.70
2014,08,09,05,22,14.60
2014,08,09,05,23,14.60
2014,08,09,05,24,14.60
2014,08,09,05,25,14.60
2014,08,09,05,26,14.60
2014,08,09,05,27,14.60
2014,08,09,05,28,14.60
2014,08,09,05,29,14.50
2014,08,09,05,30,14.60
2014,08,09,05,31,14.60
2014,08,09,05,32,14.60
2014,08,09,05,33,14.60
2014,08,09,05,34,14.60
2014,08,09,05,35,14.70
2014,08,09,05,36,14.70
2014,08,09,05,37,14.70
2014,08,09,05,38,14.80
2014,08,09,05,39,14.80
2014,08,09,05,40,14.80
2014,08,09,05,41,14.80
2014,08,09,05,42,14.80
2014,08,09,05,43,14.80
2014,08,09,05,44,14.80
2014,08,09,05,45,14.80
2014,08,09,05,46,14.70
2014,08,09,05,47,14.70
2014,08,09,05,48,14.70
2014,08,09,05,49,14.60
2014,08,09,05,50,14.60
2014,08,09,05,51,14.60
2014,08,09,05,52,14.60
2014,08,09,05,53,14.50
2014,08,09,05,54,14.50
2014,08,09,05,55,14.50
2014,08,09,05,56,14.50
2014,08,09,05,57,14.50
2014,08,09,05,58,14.50
2014,08,09,05,59,14.50
2014,08,09,06,00,14.50
2014,08,09,06,01,14.50
2014,08,09,06,02,14.50
2014,08,09,06,03,14.50
2014,08,09,06,04,14.50
2014,08,09,06,05,14.40
2014,08,09,06,06,14.40
2014,08,09,06,07,14.40
2014,08,09,06,08,14.30
2014,08,09,06,09,14.30
2014,08,09,06,10,14.30
2014,08,09,06,11,14.30
2014,08,09,06,12,14.20
2014,08,09,06,13,14.20
2014,08,09,06,14,14.20
2014,08,09,06,15,14.20
2014,08,09,06,16,14.20
2014,08,09,06,17,14.10
2014,08,09,06,18,14.10
2014,08,09,06,19,14.10
2014,08,09,06,20,14.10
2014,08,09,06,21,14.10
2014,08,09,06,22,14.10
2014,08,09,06,23,14.10
2014,08,09,06,24,14.10
2014,08,09,06,25,14.10
2014,08,09,06,26,14.00
2014,08,09,06,27,14.00
2014,08,09,06,28,14.00
2014,08,09,06,29,14.10
2014,08,09,06,30,14.00
2014,08,09,06,31,14.10
2014,08,09,06,32,14.10
2014,08,09,06,33,14.10
2014,08,09,06,34,14.10
2014,08,09,06,35,14.10
2014,08,09,06,36,14.10
2014,08,09,06,37,14.20
2014,08,09,06,38,14.20
2014,08,09,06,39,14.20
2014,08,09,06,40,14.30
2014,08,09,06,41,14.30
2014,08,09,06,42,14.30
2014,08,09,06,43,14.40
2014,08,09,06,44,14.40
2014,08,09,06,45,14.50
2014,08,09,06,46,14.50
2014,08,09,06,47,14.60
2014,08,09,06,48,14.70
2014,08,09,06,49,14.80
2014,08,09,06,50,14.80
2014,08,09,06,51,14.90
2014,08,09,06,52,15.00
2014,08,09,06,53,15.00
2014,08,09,06,54,15.00
2014,08,09,06,55,15.00
2014,08,09,06,56,15.00
2014,08,09,06,57,15.00
2014,08,09,06,58,15.00
2014,08,09,06,59,15.10
2014,08,09,07,00,15.20
2014,08,09,07,01,15.20
2014,08,09,07,02,15.30
2014,08,09,07,03,15.40
2014,08,09,07,04,15.50
2014,08,09,07,05,15.60
2014,08,09,07,06,15.70
2014,08,09,07,07,15.70
2014,08,09,07,08,15.80
2014,08,09,07,09,15.90
2014,08,09,07,10,16.00
2014,08,09,07,11,16.00
2014,08,09,07,12,16.10
2014,08,09,07,13,16.20
2014,08,09,07,14,16.20
2014,08,09,07,15,16.30
2014,08,09,07,16,16.40
2014,08,09,07,17,16.40
2014,08,09,07,18,16.50
2014,08,09,07,19,16.60
2014,08,09,07,20,16.60
2014,08,09,07,21,16.70
2014,08,09,07,22,16.70
2014,08,09,07,23,16.80
2014,08,09,07,24,16.80
2014,08,09,07,25,16.90
2014,08,09,07,26,16.90
2014,08,09,07,27,17.00
2014,08,09,07,28,17.00
2014,08,09,07,29,17.10
2014,08,09,07,30,17.10
2014,08,09,07,31,17.20
2014,08,09,07,32,17.20
2014,08,09,07,33,17.20
2014,08,09,07,34,17.30
2014,08,09,07,35,17.30
2014,08,09,07,36,17.40
2014,08,09,07,37,17.40
2014,08,09,07,38,17.40
2014,08,09,07,39,17.50
2014,08,09,07,40,17.50
2014,08,09,07,41,17.60
2014,08,09,07,42,17.60
2014,08,09,07,43,17.60
2014,08,09,07,44,17.70
2014,08,09,07,45,17.70
2014,08,09,07,46,17.70
2014,08,09,07,47,17.70
2014,08,09,07,48,17.80
2014,08,09,07,49,17.80
2014,08,09,07,50,17.80
2014,08,09,07,51,17.80
2014,08,09,07,52,17.90
2014,08,09,07,53,17.90
2014,08,09,07,54,17.90
2014,08,09,07,55,17.90
2014,08,09,07,56,18.00
2014,08,09,07,57,18.00
2014,08,09,07,58,18.10
2014,08,09,07,59,18.10
2014,08,09,08,00,18.10
2014,08,09,08,01,18.10
2014,08,09,08,02,18.10
2014,08,09,08,03,18.10
2014,08,09,08,04,18.10
2014,08,09,08,05,18.10
2014,08,09,08,06,18.10
2014,08,09,08,07,18.10
2014,08,09,08,08,18.10
2014,08,09,08,09,18.20
2014,08,09,08,10,18.20
2014,08,09,08,11,18.20
2014,08,09,08,12,18.20
2014,08,09,08,13,18.20
2014,08,09,08,14,18.20
2014,08,09,08,15,18.30
2014,08,09,08,16,18.30
2014,08,09,08,17,18.30
2014,08,09,08,18,18.30
2014,08,09,08,19,18.30
2014,08,09,08,20,18.30
2014,08,09,08,21,18.30
2014,08,09,08,22,18.30
2014,08,09,08,23,18.30
2014,08,09,08,24,18.30
2014,08,09,08,25,18.30
2014,08,09,08,26,18.30
2014,08,09,08,27,18.40
2014,08,09,08,28,18.40
2014,08,09,08,29,18.40
2014,08,09,08,30,18.40
2014,08,09,08,31,18.40
2014,08,09,08,32,18.40
2014,08,09,08,33,18.50
2014,08,09,08,34,18.50
2014,08,09,08,35,18.50
2014,08,09,08,36,18.50
2014,08,09,08,37,18.60
2014,08,09,08,38,18.60
2014,08,09,08,39,18.60
2014,08,09,08,40,18.60
2014,08,09,08,41,18.70
2014,08,09,08,42,18.70
2014,08,09,08,43,18.80
2014,08,09,08,44,18.80
2014,08,09,08,45,18.80
2014,08,09,08,46,18.80
2014,08,09,08,47,18.90
2014,08,09,08,48,18.90
2014,08,09,08,49,19.00
2014,08,09,08,50,19.00
2014,08,09,08,51,19.10
2014,08,09,08,52,19.10
2014,08,09,08,53,19.10
2014,08,09,08,54,19.10
2014,08,09,08,55,19.20
2014,08,09,08,56,19.20
2014,08,09,08,57,19.20
2014,08,09,08,58,19.30
2014,08,09,08,59,19.30
2014,08,09,09,00,19.30
2014,08,09,09,01,19.30
2014,08,09,09,02,19.30
2014,08,09,09,03,19.30
2014,08,09,09,04,19.30
2014,08,09,09,05,19.40
2014,08,09,09,06,19.40
2014,08,09,09,07,19.40
2014,08,09,09,08,19.40
2014,08,09,09,09,19.40
2014,08,09,09,10,19.40
2014,08,09,09,11,19.40
2014,08,09,09,12,19.40
2014,08,09,09,13,19.40
2014,08,09,09,14,19.50
2014,08,09,09,15,19.50
2014,08,09,09,16,19.50
2014,08,09,09,17,19.50
2014,08,09,09,18,19.50
2014,08,09,09,19,19.50
2014,08,09,09,20,19.50
2014,08,09,09,21,19.50
2014,08,09,09,22,19.50
2014,08,09,09,23,19.50
2014,08,09,09,24,19.50
2014,08,09,09,25,19.60
2014,08,09,09,26,19.60
2014,08,09,09,27,19.70
2014,08,09,09,28,19.80
2014,08,09,09,29,19.80
2014,08,09,09,30,19.90
2014,08,09,09,31,19.90
2014,08,09,09,32,19.90
2014,08,09,09,33,19.90
2014,08,09,09,34,19.90
2014,08,09,09,35,19.90
2014,08,09,09,36,19.90
2014,08,09,09,37,19.90
2014,08,09,09,38,19.90
2014,08,09,09,39,19.80
2014,08,09,09,40,19.80
2014,08,09,09,41,19.80
2014,08,09,09,42,19.80
2014,08,09,09,43,19.80
2014,08,09,09,44,19.70
2014,08,09,09,45,19.70
2014,08,09,09,46,19.80
2014,08,09,09,47,19.80
2014,08,09,09,48,19.80
2014,08,09,09,49,19.80
2014,08,09,09,50,19.80
2014,08,09,09,51,19.80
2014,08,09,09,52,19.80
2014,08,09,09,53,19.80
2014,08,09,09,54,19.80
2014,08,09,09,55,19.80
2014,08,09,09,56,19.70
2014,08,09,09,57,19.70
2014,08,09,09,58,19.70
2014,08,09,09,59,19.70
2014,08,09,10,00,19.80
2014,08,09,10,01,19.80
2014,08,09,10,02,19.80
2014,08,09,10,03,19.80
2014,08,09,10,04,19.80
2014,08,09,10,05,19.80
2014,08,09,10,06,19.80
2014,08,09,10,07,19.80
2014,08,09,10,08,19.90
2014,08,09,10,09,19.90
2014,08,09,10,10,19.90
2014,08,09,10,11,20.00
2014,08,09,10,12,20.00
2014,08,09,10,13,20.00
2014,08,09,10,14,20.00
2014,08,09,10,15,20.00
2014,08,09,10,16,20.00
2014,08,09,10,17,20.00
2014,08,09,10,18,20.00
2014,08,09,10,19,20.00
2014,08,09,10,20,20.00
2014,08,09,10,21,20.10
2014,08,09,10,22,20.10
2014,08,09,10,23,20.20
2014,08,09,10,24,20.20
2014,08,09,10,25,20.30
2014,08,09,10,26,20.30
2014,08,09,10,27,20.30
2014,08,09,10,28,20.30
2014,08,09,10,29,20.30
2014,08,09,10,30,20.30
2014,08,09,10,31,20.30
2014,08,09,10,32,20.30
2014,08,09,10,33,20.20
2014,08,09,10,34,20.20
2014,08,09,10,35,20.10
2014,08,09,10,36,20.10
2014,08,09,10,37,20.10
2014,08,09,10,38,20.00
2014,08,09,10,39,20.00
2014,08,09,10,40,20.00
2014,08,09,10,41,20.00
2014,08,09,10,42,20.00
2014,08,09,10,43,20.10
2014,08,09,10,44,20.10
2014,08,09,10,45,20.00
2014,08,09,10,46,20.00
2014,08,09,10,47,19.90
2014,08,09,10,48,19.90
2014,08,09,10,49,19.90
2014,08,09,10,50,19.80
2014,08,09,10,51,19.80
2014,08,09,10,52,19.70
2014,08,09,10,53,19.60
2014,08,09,10,54,19.60
2014,08,09,10,55,19.60
2014,08,09,10,56,19.60
2014,08,09,10,57,19.60
2014,08,09,10,58,19.50
2014,08,09,10,59,19.50
2014,08,09,11,00,19.50
2014,08,09,11,01,19.60
2014,08,09,11,02,19.60
2014,08,09,11,03,19.60
2014,08,09,11,04,19.70
2014,08,09,11,05,19.70
2014,08,09,11,06,19.70
2014,08,09,11,07,19.70
2014,08,09,11,08,19.70
2014,08,09,11,09,19.60
2014,08,09,11,10,19.60
2014,08,09,11,11,19.60
2014,08,09,11,12,19.50
2014,08,09,11,13,19.50
2014,08,09,11,14,19.50
2014,08,09,11,15,19.50
2014,08,09,11,16,19.50
2014,08,09,11,17,19.50
2014,08,09,11,18,19.60
2014,08,09,11,19,19.60
2014,08,09,11,20,19.70
2014,08,09,11,21,19.70
2014,08,09,11,22,19.80
2014,08,09,11,23,19.80
2014,08,09,11,24,19.80
2014,08,09,11,25,19.90
2014,08,09,11,26,19.90
2014,08,09,11,27,19.90
2014,08,09,11,28,19.90
2014,08,09,11,29,19.90
2014,08,09,11,30,19.90
2014,08,09,11,31,19.90
2014,08,09,11,32,19.90
2014,08,09,11,33,19.90
2014,08,09,11,34,19.90
2014,08,09,11,35,19.90
2014,08,09,11,36,19.90
2014,08,09,11,37,20.00
2014,08,09,11,38,20.00
2014,08,09,11,39,20.00
2014,08,09,11,40,20.00
2014,08,09,11,41,20.00
2014,08,09,11,42,20.00
2014,08,09,11,43,20.00
2014,08,09,11,44,20.00
2014,08,09,11,45,20.00
2014,08,09,11,46,19.90
2014,08,09,11,47,19.90
2014,08,09,11,48,19.90
2014,08,09,11,49,19.90
2014,08,09,11,50,19.80
2014,08,09,11,51,19.80
2014,08,09,11,52,19.70
2014,08,09,11,53,19.80
2014,08,09,11,54,19.80
2014,08,09,11,55,19.90
2014,08,09,11,56,20.00
2014,08,09,11,57,20.00
2014,08,09,11,58,20.10
2014,08,09,11,59,20.10
2014,08,09,12,00,20.20
2014,08,09,12,01,20.20
2014,08,09,12,02,20.30
2014,08,09,12,03,20.30
2014,08,09,12,04,20.40
2014,08,09,12,05,20.50
2014,08,09,12,06,20.60
2014,08,09,12,07,20.60
2014,08,09,12,08,20.60
2014,08,09,12,09,20.70
2014,08,09,12,10,20.70
2014,08,09,12,11,20.70
2014,08,09,12,12,20.70
2014,08,09,12,13,20.60
2014,08,09,12,14,20.60
2014,08,09,12,15,20.60
2014,08,09,12,16,20.60
2014,08,09,12,17,20.60
2014,08,09,12,18,20.60
2014,08,09,12,19,20.60
2014,08,09,12,20,20.70
2014,08,09,12,21,20.70
2014,08,09,12,22,20.70
2014,08,09,12,23,20.70
2014,08,09,12,24,20.80
2014,08,09,12,25,20.80
2014,08,09,12,26,20.90
2014,08,09,12,27,20.90
2014,08,09,12,28,20.90
2014,08,09,12,29,20.90
2014,08,09,12,30,20.90
2014,08,09,12,31,20.80
2014,08,09,12,32,20.80
2014,08,09,12,33,20.80
2014,08,09,12,34,20.90
2014,08,09,12,35,20.90
2014,08,09,12,36,20.90
2014,08,09,12,37,20.90
2014,08,09,12,38,20.90
2014,08,09,12,39,20.90
2014,08,09,12,40,21.00
2014,08,09,12,41,21.10
2014,08,09,12,42,21.00
2014,08,09,12,43,21.00
2014,08,09,12,44,21.00
2014,08,09,12,45,21.10
2014,08,09,12,46,21.10
2014,08,09,12,47,21.10
2014,08,09,12,48,21.20
2014,08,09,12,49,21.30
2014,08,09,12,50,21.30
2014,08,09,12,51,21.40
2014,08,09,12,52,21.40
2014,08,09,12,53,21.40
2014,08,09,12,54,21.40
2014,08,09,12,55,21.40
2014,08,09,12,56,21.30
2014,08,09,12,57,21.30
2014,08,09,12,58,21.30
2014,08,09,12,59,21.30
2014,08,09,13,00,21.30
2014,08,09,13,01,21.30
2014,08,09,13,02,21.30
2014,08,09,13,03,21.30
2014,08,09,13,04,21.30
2014,08,09,13,05,21.40
2014,08,09,13,06,21.40
2014,08,09,13,07,21.50
2014,08,09,13,08,21.50
2014,08,09,13,09,21.50
2014,08,09,13,10,21.50
2014,08,09,13,11,21.60
2014,08,09,13,12,21.60
2014,08,09,13,13,21.60
2014,08,09,13,14,21.70
2014,08,09,13,15,21.70
2014,08,09,13,16,21.70
2014,08,09,13,17,21.70
2014,08,09,13,18,21.70
2014,08,09,13,19,21.80
2014,08,09,13,20,21.90
2014,08,09,13,21,22.00
2014,08,09,13,22,22.10
2014,08,09,13,23,22.20
2014,08,09,13,24,22.20
2014,08,09,13,25,22.20
2014,08,09,13,26,22.20
2014,08,09,13,27,22.20
2014,08,09,13,28,22.20
2014,08,09,13,29,22.20
2014,08,09,13,30,22.20
2014,08,09,13,31,22.20
2014,08,09,13,32,22.20
2014,08,09,13,33,22.20
2014,08,09,13,34,22.20
2014,08,09,13,35,22.20
2014,08,09,13,36,22.30
2014,08,09,13,37,22.30
2014,08,09,13,38,22.40
2014,08,09,13,39,22.50
2014,08,09,13,40,22.50
2014,08,09,13,41,22.50
2014,08,09,13,42,22.50
2014,08,09,13,43,22.50
2014,08,09,13,44,22.40
2014,08,09,13,45,22.40
2014,08,09,13,46,22.40
2014,08,09,13,47,22.40
2014,08,09,13,48,22.40
2014,08,09,13,49,22.40
2014,08,09,13,50,22.40
2014,08,09,13,51,22.40
2014,08,09,13,52,22.40
2014,08,09,13,53,22.40
2014,08,09,13,54,22.40
2014,08,09,13,55,22.40
2014,08,09,13,56,22.50
2014,08,09,13,57,22.50
2014,08,09,13,58,22.60
2014,08,09,13,59,22.60
2014,08,09,14,00,22.70
2014,08,09,14,01,22.70
2014,08,09,14,02,22.80
2014,08,09,14,03,22.80
2014,08,09,14,04,22.80
2014,08,09,14,05,22.90
2014,08,09,14,06,22.90
2014,08,09,14,07,22.90
2014,08,09,14,08,22.80
2014,08,09,14,09,22.80
2014,08,09,14,10,22.80
2014,08,09,14,11,22.80
2014,08,09,14,12,22.80
2014,08,09,14,13,22.80
2014,08,09,14,14,22.80
2014,08,09,14,15,22.80
2014,08,09,14,16,22.80
2014,08,09,14,17,22.80
2014,08,09,14,18,22.80
2014,08,09,14,19,22.80
2014,08,09,14,20,22.80
2014,08,09,14,21,22.80
2014,08,09,14,22,22.90
2014,08,09,14,23,22.90
2014,08,09,14,24,22.90
2014,08,09,14,25,23.00
2014,08,09,14,26,23.10
2014,08,09,14,27,23.10
2014,08,09,14,28,23.20
2014,08,09,14,29,23.20
2014,08,09,14,30,23.20
2014,08,09,14,31,23.20
2014,08,09,14,32,23.20
2014,08,09,14,33,23.20
2014,08,09,14,34,23.20
2014,08,09,14,35,23.20
2014,08,09,14,36,23.20
2014,08,09,14,37,23.20
2014,08,09,14,38,23.20
2014,08,09,14,39,23.20
2014,08,09,14,40,23.10
2014,08,09,14,41,23.10
2014,08,09,14,42,23.10
2014,08,09,14,43,23.20
2014,08,09,14,44,23.20
2014,08,09,14,45,23.20
2014,08,09,14,46,23.30
2014,08,09,14,47,23.40
2014,08,09,14,48,23.40
2014,08,09,14,49,23.40
2014,08,09,14,50,23.40
2014,08,09,14,51,23.40
2014,08,09,14,52,23.40
2014,08,09,14,53,23.40
2014,08,09,14,54,23.40
2014,08,09,14,55,23.40
2014,08,09,14,56,23.40
2014,08,09,14,57,23.40
2014,08,09,14,58,23.40
2014,08,09,14,59,23.30
2014,08,09,15,00,23.30
2014,08,09,15,01,23.20
2014,08,09,15,02,23.10
2014,08,09,15,03,23.10
2014,08,09,15,04,23.10
2014,08,09,15,05,23.10
2014,08,09,15,06,23.10
2014,08,09,15,07,23.20
2014,08,09,15,08,23.20
2014,08,09,15,09,23.20
2014,08,09,15,10,23.20
2014,08,09,15,11,23.20
2014,08,09,15,12,23.30
2014,08,09,15,13,23.30
2014,08,09,15,14,23.30
2014,08,09,15,15,23.40
2014,08,09,15,16,23.40
2014,08,09,15,17,23.50
2014,08,09,15,18,23.50
2014,08,09,15,19,23.60
2014,08,09,15,20,23.70
2014,08,09,15,21,23.80
2014,08,09,15,22,23.80
2014,08,09,15,23,23.80
2014,08,09,15,24,23.90
2014,08,09,15,25,23.90
2014,08,09,15,26,23.90
2014,08,09,15,27,23.90
2014,08,09,15,28,23.90
2014,08,09,15,29,23.90
2014,08,09,15,30,23.90
2014,08,09,15,31,23.90
2014,08,09,15,32,23.90
2014,08,09,15,33,24.00
2014,08,09,15,34,24.00
2014,08,09,15,35,24.10
2014,08,09,15,36,24.10
2014,08,09,15,37,24.10
2014,08,09,15,38,24.10
2014,08,09,15,39,24.10
2014,08,09,15,40,24.10
2014,08,09,15,41,24.10
2014,08,09,15,42,24.10
2014,08,09,15,43,24.10
2014,08,09,15,44,24.20
2014,08,09,15,45,24.20
2014,08,09,15,46,24.20
2014,08,09,15,47,24.30
2014,08,09,15,48,24.30
2014,08,09,15,49,24.30
2014,08,09,15,50,24.30
2014,08,09,15,51,24.40
2014,08,09,15,52,24.40
2014,08,09,15,53,24.40
2014,08,09,15,54,24.50
2014,08,09,15,55,24.50
2014,08,09,15,56,24.60
2014,08,09,15,57,24.60
2014,08,09,15,58,24.60
2014,08,09,15,59,24.70
2014,08,09,16,00,24.70
2014,08,09,16,01,24.70
2014,08,09,16,02,24.70
2014,08,09,16,03,24.70
2014,08,09,16,04,24.80
2014,08,09,16,05,24.80
2014,08,09,16,06,24.90
2014,08,09,16,07,24.90
2014,08,09,16,08,25.00
2014,08,09,16,09,24.90
2014,08,09,16,10,24.90
2014,08,09,16,11,24.80
2014,08,09,16,12,24.80
2014,08,09,16,13,24.80
2014,08,09,16,14,24.70
2014,08,09,16,15,24.70
2014,08,09,16,16,24.60
2014,08,09,16,17,24.60
2014,08,09,16,18,24.50
2014,08,09,16,19,24.40
2014,08,09,16,20,24.40
2014,08,09,16,21,24.40
2014,08,09,16,22,24.40
2014,08,09,16,23,24.50
2014,08,09,16,24,24.50
2014,08,09,16,25,24.40
2014,08,09,16,26,24.40
2014,08,09,16,27,24.40
2014,08,09,16,28,24.40
2014,08,09,16,29,24.40
2014,08,09,16,30,24.30
2014,08,09,16,31,24.30
2014,08,09,16,32,24.30
2014,08,09,16,33,24.20
2014,08,09,16,34,24.20
2014,08,09,16,35,24.20
2014,08,09,16,36,24.20
2014,08,09,16,37,24.20
2014,08,09,16,38,24.10
2014,08,09,16,39,24.10
2014,08,09,16,40,24.20
2014,08,09,16,41,24.30
2014,08,09,16,42,24.30
2014,08,09,16,43,24.40
2014,08,09,16,44,24.50
2014,08,09,16,45,24.60
2014,08,09,16,46,24.70
2014,08,09,16,47,24.70
2014,08,09,16,48,24.80
2014,08,09,16,49,24.90
2014,08,09,16,50,24.90
2014,08,09,16,51,25.00
2014,08,09,16,52,25.00
2014,08,09,16,53,25.00
2014,08,09,16,54,24.90
2014,08,09,16,55,24.90
2014,08,09,16,56,24.80
2014,08,09,16,57,24.80
2014,08,09,16,58,24.70
2014,08,09,16,59,24.70
2014,08,09,17,00,24.70
2014,08,09,17,01,24.70
2014,08,09,17,02,24.70
2014,08,09,17,03,24.70
2014,08,09,17,04,24.70
2014,08,09,17,05,24.70
2014,08,09,17,06,24.70
2014,08,09,17,07,24.80
2014,08,09,17,08,24.80
2014,08,09,17,09,24.80
2014,08,09,17,10,24.80
2014,08,09,17,11,24.80
2014,08,09,17,12,24.80
2014,08,09,17,13,24.80
2014,08,09,17,14,24.80
2014,08,09,17,15,24.80
2014,08,09,17,16,24.70
2014,08,09,17,17,24.70
2014,08,09,17,18,24.70
2014,08,09,17,19,24.70